TimeAKST,TemperatureF,Dew PointF,Humidity,Sea Level PressureIn,VisibilityMPH,Wind Direction,Wind SpeedMPH,Gust SpeedMPH,PrecipitationIn,Events,Conditions,WindDirDegrees,DateUTC
12:53 AM,-0.9,-13.0,57,30.01,10.0,North,9.2,-,N/A,,Clear,10,2012-11-20 09:53:00
1:53 AM,-0.9,-13.0,57,30.01,10.0,NE,8.1,-,N/A,,Partly Cloudy,40,2012-11-20 10:53:00
3:53 AM,-0.9,-13.0,57,29.99,10.0,NNE,12.7,-,N/A,,Mostly Cloudy,20,2012-11-20 12:53:00
4:53 AM,-2.0,-13.0,60,29.99,10.0,NNE,11.5,-,N/A,,Clear,30,2012-11-20 13:53:00
5:53 AM,-2.9,-14.1,59,30.00,10.0,NNE,9.2,-,N/A,,Partly Cloudy,30,2012-11-20 14:53:00
6:53 AM,-2.9,-13.0,62,30.00,10.0,North,4.6,-,N/A,,Clear,10,2012-11-20 15:53:00
7:53 AM,-4.0,-13.0,65,29.99,10.0,NNE,4.6,-,N/A,,Clear,20,2012-11-20 16:53:00
8:53 AM,-0.9,-11.9,60,29.99,10.0,North,12.7,-,N/A,,Clear,10,2012-11-20 17:53:00
9:53 AM,-0.9,-11.9,60,29.99,10.0,NNE,9.2,-,N/A,,Clear,20,2012-11-20 18:53:00
10:53 AM,-0.9,-11.9,60,30.00,10.0,North,11.5,-,N/A,,Clear,10,2012-11-20 19:53:00
11:53 AM,1.0,-11.0,57,30.00,10.0,North,12.7,-,N/A,,Clear,10,2012-11-20 20:53:00
12:53 PM,1.9,-9.9,58,30.00,10.0,NNE,10.4,-,N/A,,Clear,20,2012-11-20 21:53:00
1:53 PM,3.0,-9.9,55,30.00,10.0,NNE,11.5,-,N/A,,Clear,20,2012-11-20 22:53:00
2:53 PM,3.0,-9.0,57,30.00,10.0,NNE,8.1,-,N/A,,Clear,30,2012-11-20 23:53:00
3:53 PM,1.9,-9.9,58,30.01,10.0,NNE,8.1,-,N/A,,Clear,20,2012-11-21 00:53:00
5:53 PM,1.0,-9.9,60,30.03,10.0,NNE,6.9,-,N/A,,Clear,20,2012-11-21 02:53:00
6:53 PM,1.0,-9.9,60,30.04,10.0,North,6.9,-,N/A,,Clear,10,2012-11-21 03:53:00
7:53 PM,1.0,-9.9,60,30.04,10.0,NNE,9.2,-,N/A,,Clear,20,2012-11-21 04:53:00
8:53 PM,-0.9,-11.0,62,30.05,10.0,Calm,Calm,-,N/A,,Clear,0,2012-11-21 05:53:00
9:53 PM,-0.9,-11.0,62,30.06,10.0,Variable,3.5,-,N/A,,Clear,0,2012-11-21 06:53:00
10:53 PM,-5.1,-11.9,72,30.07,10.0,WNW,3.5,-,N/A,,Clear,290,2012-11-21 07:53:00
11:53 PM,-9.9,-16.1,74,30.08,10.0,West,3.5,-,N/A,,Clear,260,2012-11-21 08:53:00